Location: Greenwich
(51.4790°N, 0.0090°E)
Time: 15:20:39
(UTC+01:00)

N. Korean satellite - Visible Passes

Search period start: 01 October 2022 00:00
Search period end: 11 October 2022 00:00
Orbit: 426 x 468 km, 97.3° (Epoch: 30 September)

Date Brightness Start Highest point End Pass type
(mag) Time Alt. Az. Time Alt. Az. Time Alt. Az.
01 Oct 8.6 05:50:51 10° NNE 05:53:48 29° E 05:56:41 10° SSE visible
02 Oct 9.8 05:16:19 10° ENE 05:17:42 12° E 05:19:03 10° ESE visible
03 Oct 7.3 06:11:39 10° NNE 06:14:53 52° E 06:18:04 10° S visible
04 Oct 9.3 05:36:17 10° NE 05:38:47 20° E 05:41:17 10° SE visible
06 Oct 8.2 05:56:35 10° NNE 05:59:37 34° E 06:02:37 10° SSE visible
07 Oct 9.7 05:21:31 10° ENE 05:23:18 14° E 05:25:05 10° ESE visible
08 Oct 6.9 06:16:56 10° NNE 06:20:11 61° ESE 06:23:26 10° S visible
09 Oct 9.0 05:41:13 10° NE 05:43:53 23° E 05:46:32 10° SSE visible
10 Oct 6.2 06:37:13 10° N 06:40:30 73° WNW 06:43:45 10° SSW visible
